Weather History for Nasa Shuttle, FL

Change the Weather History Date:

Saturday, March 9, 2013

  Actual Average Record
Temperature  
Mean Temperature 60 °F -  
Max Temperature 70 °F 72 °F 84 °F (2003)
Min Temperature 49 °F 54 °F 44 °F (2001)
Degree Days  
Heating Degree Days 6    
Growing Degree Days 10 (Base 50)    
Moisture  
Dew Point 49 °F    
Average Humidity 63    
Maximum Humidity 92    
Minimum Humidity 46    
Precipitation  
Precipitation 0.00 in - - ()
Sea Level Pressure  
Sea Level Pressure 30.21 in    
Wind  
Wind Speed 7 mph (NE)    
Max Wind Speed 12 mph    
Max Gust Speed 18 mph    
Visibility 10 miles    
Events      
Averages and records for this station are not official NWS values.
T = Trace of Precipitation, MM = Missing Value Source: NWS Daily Summary

Daily Weather History Graph

Daily Weather History Graph

Search for Another Location

Airport:

Trip Planner

Search our weather history database for the weather conditions in past years. The results will help you decide how hot, cold, wet, or windy it might be!

Date:

Astronomy

Mar. 09, 2013 Rise Set
Actual Time 6:38 AM EST 6:27 PM EST
Civil Twilight 6:15 AM EST 6:51 PM EST
Nautical Twilight 5:48 AM EST 7:18 PM EST
Astronomical Twilight 5:20 AM EST 7:46 PM EST
Moon 4:53 AM EST (3/9) 4:34 PM EST (3/9)
Length of Visible Light 12h 36m
Length of Day
11h 48m
Waning Crescent, 5% of the Moon is Illuminated
Mar 9
Waning Crescent
Mar 11
New
Mar 19
First Quarter
Mar 27
Full
Apr 3
Last Quarter

Hourly Weather History & Observations

Time (EST) Temp. Dew Point Humidity Pressure Visibility Wind Dir Wind Speed Gust Speed Precip Events Conditions
12:55 AM 57.6 °F 45.1 °F 63% 30.20 in 10.0 mi NE 5.8 mph - N/A   Clear
1:55 AM 56.7 °F 45.5 °F 66% 30.19 in 10.0 mi NNE 6.9 mph - N/A   Clear
2:55 AM 57.7 °F 43.5 °F 59% 30.18 in 10.0 mi NNE 8.1 mph - N/A   Clear
3:55 AM 57.9 °F 43.9 °F 60% 30.15 in 10.0 mi NE 9.2 mph - N/A   Clear
4:55 AM 57.6 °F 46.6 °F 67% 30.16 in 10.0 mi NE 6.9 mph - N/A   Clear
5:55 AM 54.5 °F 46.2 °F 74% 30.18 in 10.0 mi North 4.6 mph - N/A   Clear
6:55 AM 49.1 °F 46.9 °F 92% 30.19 in 10.0 mi NNW 3.5 mph - N/A   Clear
7:55 AM 55.9 °F 50.5 °F 82% 30.21 in 10.0 mi WNW 3.5 mph - N/A   Clear
8:55 AM 67.5 °F 49.1 °F 52% 30.23 in 10.0 mi ENE 10.4 mph - N/A   Partly Cloudy
9:55 AM 70.5 °F 49.5 °F 47% 30.24 in 10.0 mi ENE 6.9 mph - N/A   Scattered Clouds
10:55 AM 69.6 °F 48.7 °F 47% 30.25 in 10.0 mi Variable 6.9 mph - N/A   Partly Cloudy
11:55 AM 69.4 °F 49.6 °F 49% 30.25 in 10.0 mi East 8.1 mph - N/A   Mostly Cloudy
12:55 PM 70.0 °F 48.6 °F 46% 30.23 in 10.0 mi NE 10.4 mph - N/A   Partly Cloudy
1:55 PM 70.0 °F 50.4 °F 50% 30.21 in 10.0 mi NE 10.4 mph - N/A   Partly Cloudy
2:55 PM 70.0 °F 49.8 °F 49% 30.21 in 10.0 mi East 9.2 mph - N/A   Partly Cloudy
3:55 PM 68.9 °F 48.9 °F 49% 30.19 in 10.0 mi NNE 11.5 mph 18.4 mph N/A   Clear
4:55 PM 66.9 °F 49.3 °F 53% 30.20 in 10.0 mi NE 9.2 mph - N/A   Scattered Clouds
5:55 PM 64.0 °F 49.6 °F 59% 30.21 in 10.0 mi NNE 6.9 mph - N/A   Mostly Cloudy
6:55 PM 61.5 °F 50.2 °F 66% 30.22 in 10.0 mi North 4.6 mph - N/A   Mostly Cloudy
7:55 PM 58.5 °F 50.7 °F 75% 30.22 in 10.0 mi North 4.6 mph - N/A   Partly Cloudy
8:55 PM 61.3 °F 55.2 °F 80% 30.22 in 10.0 mi NNE 6.9 mph - N/A   Overcast
9:55 PM 60.8 °F 56.3 °F 85% 30.21 in 10.0 mi NE 5.8 mph - N/A   Scattered Clouds
10:55 PM 59.9 °F 50.9 °F 72% 30.22 in 10.0 mi ENE 6.9 mph - N/A   Clear
11:55 PM 57.0 °F 51.1 °F 81% 30.21 in 10.0 mi Calm Calm - N/A   Mostly Cloudy